Погода в Ербинской

Россия / Республика Хакасия     53°58′33″N   90°18′54″E
темп.,
°C
ветер,
м/с
пор.,
м/с
влажн.,
%
обл.,
%
осадки,
мм/ч
давл.,
гПа
погр.,
м
16 мая, вс
вс1601:00+12з7165962 0.1 1017663
04:00+12з71559100 0.0 1017718
07:00+13з51359100 0.1 1016902
10:00+16з9145383 0.1 10141258
13:00+19з8124185 0.1 10121732
16:00+19з81245100 0.0 10111786
19:00+18зюз91551100 0.0 10081811
22:00+11з51084100 6.7 1010567
17 мая, пн
пн1701:00+11ссз3686100 6.9 1010417
04:00+9ссв2292100 0.4 1011291
07:00+8с2293100 0.6 1013284
10:00+9ссв2289100 0.1 1014415
13:00+10всв1183100 0.1 1014544
16:00+10св2183100 0.1 1014530
19:00+8с2287100 0.1 1015280
22:00+8ссз1286100 0.0 1016135
18 мая, вт
вт1801:00+7юз118570 0.0 101529
04:00+6ююз2293100 0.0 101434
07:00+8ююз2386100 0.0 1012134
10:00+12зюз71068100 0.1 1008857
13:00+12зюз61478100 2.9 1006902
16:00+16з9176485 0.0 10021498
19:00+11сз5138281 3.7 1002890
22:00+10юз238750 0.6 100455
19 мая, ср
ср1901:00+9з488814 1.3 1002261
04:00+8с239378 0.1 1004159
07:00+9ююз128899 0.1 1004171
10:00+13юз2467100 0.6 10011044
13:00+15ююз4657100 1.7 9961344
16:00+10зсз7128494 9.7 995845
19:00+5с5796100 16.3 997472
22:00+1ссз51398100 5.8 1000651
20 мая, чт
чт2001:00−1сз7139599 9.4 1004974
04:00−2сз8138446 0.5 1009741
07:00−2сз5108099 0.5 1012732
10:000ссз686891 0.0 10131367
13:00+1ссз6875100 0.3 10131425
16:00+1ссз677197 0.8 10141209
19:000ссз476828 1.0 10161144
22:00−2зсз2483100 0.0 1018135